SIA412 WBSB-WIII

Flight info

Callsign SIA412
Flight time 1h 59m
Altitude 40000
Route BRU R223 BUTAX P648 AMBOY
Aircraft A359/H-SDE2E3GHIJ3J4J5LM1ORWXY/LB1D1

Departure

Time 2026-04-28 09:52
Airport Brunei International Airport (WBSB)

Arrival

Time 2026-04-28 11:51
Airport Soekarno-Hatta International Airport (WIII)
Time Latitude Longitude Altitude Speed Heading
2026-04-28 09:34 4.94669 114.93270 51 ft 0 kts 137°
2026-04-28 09:45 4.94672 114.93267 57 ft 2 kts 137°
2026-04-28 09:45 4.94680 114.93260 49 ft 1 kts 137°
2026-04-28 09:45 4.94688 114.93253 49 ft 1 kts 137°
2026-04-28 09:45 4.94697 114.93244 50 ft 2 kts 113°
2026-04-28 09:46 4.94700 114.93230 49 ft 2 kts 83°
2026-04-28 09:46 4.94697 114.93217 49 ft 2 kts 51°
2026-04-28 09:46 4.94688 114.93207 49 ft 0 kts 21°
2026-04-28 09:47 4.94702 114.93213 49 ft 8 kts 24°
2026-04-28 09:48 4.94796 114.93263 52 ft 18 kts 26°
2026-04-28 09:48 4.94914 114.93326 55 ft 21 kts 31°
2026-04-28 09:48 4.95046 114.93405 54 ft 25 kts 31°
2026-04-28 09:48 4.95196 114.93495 58 ft 25 kts 31°
2026-04-28 09:49 4.95345 114.93584 60 ft 26 kts 31°
2026-04-28 09:49 4.95500 114.93678 64 ft 26 kts 31°
2026-04-28 09:49 4.95654 114.93771 68 ft 26 kts 31°
2026-04-28 09:49 4.95746 114.93785 71 ft 6 kts 336°
2026-04-28 09:50 4.95759 114.93778 68 ft 0 kts 326°
2026-04-28 09:50 4.95764 114.93775 69 ft 3 kts 326°
2026-04-28 09:50 4.95800 114.93737 67 ft 10 kts 304°
2026-04-28 09:50 4.95813 114.93680 70 ft 7 kts 259°
2026-04-28 09:51 4.95790 114.93650 68 ft 4 kts 214°
2026-04-28 09:51 4.95748 114.93624 68 ft 13 kts 211°
2026-04-28 09:51 4.95394 114.93410 61 ft 112 kts 211°
2026-04-28 09:51 4.94466 114.92862 265 ft 183 kts 214°
2026-04-28 09:52 4.93344 114.92185 1221 ft 185 kts 214°
2026-04-28 09:52 4.92248 114.91509 1639 ft 191 kts 214°
2026-04-28 09:52 4.91065 114.90758 1821 ft 212 kts 213°
2026-04-28 09:52 4.89773 114.89937 2099 ft 225 kts 213°
2026-04-28 09:53 4.88397 114.89109 2432 ft 241 kts 207°
2026-04-28 09:53 4.86732 114.88594 2702 ft 260 kts 189°
2026-04-28 09:53 4.84931 114.88372 3217 ft 267 kts 183°
2026-04-28 09:53 4.83060 114.88290 3732 ft 270 kts 180°
2026-04-28 09:54 4.81169 114.88273 3963 ft 273 kts 178°
2026-04-28 09:54 4.79263 114.88276 4006 ft 274 kts 177°
2026-04-28 09:54 4.77346 114.88278 4008 ft 276 kts 178°
2026-04-28 09:54 4.75431 114.88266 4143 ft 276 kts 178°
2026-04-28 09:55 4.73496 114.88241 4665 ft 279 kts 179°
2026-04-28 09:55 4.71559 114.88203 5354 ft 278 kts 179°
2026-04-28 09:55 4.69647 114.88158 5979 ft 279 kts 179°
2026-04-28 09:55 4.67702 114.88113 6604 ft 280 kts 179°
2026-04-28 09:56 4.65743 114.88066 7166 ft 283 kts 179°
2026-04-28 09:56 4.63772 114.88020 7745 ft 284 kts 179°
2026-04-28 09:56 4.61786 114.87973 8318 ft 287 kts 179°
2026-04-28 09:56 4.59785 114.87927 8880 ft 289 kts 179°
2026-04-28 09:57 4.57768 114.87881 9466 ft 291 kts 179°
2026-04-28 09:57 4.55737 114.87835 10004 ft 293 kts 179°
2026-04-28 09:57 4.53667 114.87789 10335 ft 304 kts 179°
2026-04-28 09:57 4.51501 114.87743 10518 ft 318 kts 179°
2026-04-28 09:58 4.49268 114.87696 10695 ft 332 kts 179°
2026-04-28 09:58 4.46909 114.87590 10864 ft 347 kts 184°
2026-04-28 09:58 4.44494 114.87141 11021 ft 360 kts 194°
2026-04-28 09:58 4.42135 114.86188 11215 ft 371 kts 207°
2026-04-28 09:59 4.39922 114.84827 11583 ft 375 kts 212°
2026-04-28 09:59 4.37780 114.83307 11969 ft 379 kts 215°
2026-04-28 09:59 4.35674 114.81706 12360 ft 381 kts 216°
2026-04-28 09:59 4.33574 114.80070 12738 ft 384 kts 217°
2026-04-28 10:00 4.31461 114.78424 13130 ft 386 kts 217°
2026-04-28 10:00 4.29358 114.76799 13491 ft 388 kts 216°
2026-04-28 10:00 4.27205 114.75154 13831 ft 390 kts 216°
2026-04-28 10:00 4.25047 114.73518 14269 ft 388 kts 216°
2026-04-28 10:01 4.22902 114.71899 14793 ft 384 kts 216°
2026-04-28 10:01 4.20777 114.70300 15341 ft 380 kts 216°
2026-04-28 10:01 4.18670 114.68715 15886 ft 379 kts 216°
2026-04-28 10:01 4.16528 114.67105 16435 ft 391 kts 216°
2026-04-28 10:02 4.14335 114.65457 16990 ft 396 kts 216°
2026-04-28 10:02 4.12132 114.63800 17326 ft 406 kts 216°
2026-04-28 10:02 4.09853 114.62087 17726 ft 413 kts 216°
2026-04-28 10:02 4.07545 114.60350 18209 ft 417 kts 216°
2026-04-28 10:03 4.05216 114.58597 18647 ft 420 kts 216°
2026-04-28 10:03 4.02871 114.56832 19097 ft 423 kts 216°
2026-04-28 10:03 4.00510 114.55055 19548 ft 426 kts 216°
2026-04-28 10:03 3.98132 114.53265 20004 ft 429 kts 216°
2026-04-28 10:04 3.95740 114.51465 20453 ft 432 kts 215°
2026-04-28 10:04 3.93359 114.49675 20904 ft 435 kts 215°
2026-04-28 10:04 3.90941 114.47840 21370 ft 438 kts 216°
2026-04-28 10:04 3.88532 114.45952 21816 ft 441 kts 217°
2026-04-28 10:05 3.86120 114.44029 22286 ft 445 kts 217°
2026-04-28 10:05 3.83694 114.42088 22750 ft 448 kts 217°
2026-04-28 10:05 3.81250 114.40134 23199 ft 451 kts 217°
2026-04-28 10:05 3.78785 114.38172 23596 ft 454 kts 217°
2026-04-28 10:06 3.76337 114.36229 24001 ft 456 kts 217°
2026-04-28 10:06 3.73810 114.34228 24396 ft 458 kts 216°
2026-04-28 10:06 3.71333 114.32271 24788 ft 461 kts 216°
2026-04-28 10:06 3.68809 114.30276 25225 ft 463 kts 216°
2026-04-28 10:07 3.66272 114.28273 25666 ft 466 kts 216°
2026-04-28 10:07 3.63717 114.26255 26130 ft 469 kts 216°
2026-04-28 10:07 3.61149 114.24227 26675 ft 469 kts 216°
2026-04-28 10:07 3.58613 114.22222 27627 ft 460 kts 216°
2026-04-28 10:08 3.56132 114.20258 28625 ft 450 kts 216°
2026-04-28 10:08 3.53708 114.18339 29631 ft 439 kts 216°
2026-04-28 10:08 3.51363 114.16485 30435 ft 432 kts 216°
2026-04-28 10:08 3.49012 114.14628 31006 ft 430 kts 216°
2026-04-28 10:09 3.46664 114.12776 31453 ft 430 kts 216°
2026-04-28 10:09 3.44314 114.10924 31922 ft 430 kts 216°
2026-04-28 10:09 3.41970 114.09075 32417 ft 428 kts 216°
2026-04-28 10:09 3.39636 114.07233 32905 ft 427 kts 216°
2026-04-28 10:10 3.37307 114.05395 33393 ft 425 kts 217°
2026-04-28 10:10 3.34991 114.03566 33842 ft 423 kts 217°
2026-04-28 10:10 3.32711 114.01766 34221 ft 423 kts 217°
2026-04-28 10:10 3.30405 113.99946 34597 ft 421 kts 217°
2026-04-28 10:11 3.28109 113.98133 34974 ft 420 kts 217°
2026-04-28 10:11 3.25818 113.96326 35347 ft 419 kts 217°
2026-04-28 10:11 3.23538 113.94526 35688 ft 417 kts 217°
2026-04-28 10:11 3.21260 113.92728 36024 ft 416 kts 217°
2026-04-28 10:12 3.18989 113.90936 36355 ft 415 kts 217°
2026-04-28 10:12 3.16725 113.89149 36666 ft 414 kts 217°
2026-04-28 10:12 3.14496 113.87391 36956 ft 413 kts 217°
2026-04-28 10:12 3.12236 113.85608 37203 ft 414 kts 217°
2026-04-28 10:13 3.09971 113.83821 37400 ft 416 kts 217°
2026-04-28 10:13 3.07697 113.82027 37650 ft 415 kts 217°
2026-04-28 10:13 3.05435 113.80243 37941 ft 414 kts 217°
2026-04-28 10:13 3.03177 113.78461 38210 ft 413 kts 217°
2026-04-28 10:14 3.00918 113.76679 38433 ft 413 kts 217°
2026-04-28 10:14 2.98666 113.74903 38653 ft 412 kts 218°
2026-04-28 10:14 2.96427 113.73136 38962 ft 408 kts 217°
2026-04-28 10:14 2.94239 113.71410 39211 ft 405 kts 217°
2026-04-28 10:15 2.92025 113.69664 39373 ft 405 kts 217°
2026-04-28 10:15 2.89812 113.67919 39525 ft 405 kts 217°
2026-04-28 10:15 2.85359 113.64409 39668 ft 410 kts 217°
2026-04-28 10:16 2.80846 113.60852 39781 ft 416 kts 217°
2026-04-28 10:16 2.76266 113.57241 39821 ft 423 kts 217°
2026-04-28 10:17 2.71618 113.53592 39825 ft 432 kts 217°
2026-04-28 10:17 2.66832 113.49830 39824 ft 443 kts 217°
2026-04-28 10:18 2.61937 113.45983 39819 ft 453 kts 217°
2026-04-28 10:18 2.56932 113.42049 39823 ft 463 kts 216°
2026-04-28 10:19 2.51809 113.38025 39824 ft 473 kts 217°
2026-04-28 10:19 2.46619 113.33948 39818 ft 483 kts 217°
2026-04-28 10:20 2.41289 113.29761 39818 ft 492 kts 217°
2026-04-28 10:20 2.35861 113.25498 39817 ft 500 kts 217°
2026-04-28 10:21 2.30370 113.21186 39819 ft 504 kts 217°
2026-04-28 10:21 2.24885 113.16878 39816 ft 505 kts 217°
2026-04-28 10:22 2.19365 113.12543 39818 ft 505 kts 217°
2026-04-28 10:22 2.13839 113.08204 39821 ft 506 kts 217°
2026-04-28 10:23 2.08287 113.03846 39818 ft 508 kts 217°
2026-04-28 10:23 2.02760 112.99508 39820 ft 508 kts 217°
2026-04-28 10:24 1.97197 112.95141 39830 ft 508 kts 217°
2026-04-28 10:24 1.91636 112.90777 39831 ft 508 kts 217°
2026-04-28 10:25 1.86077 112.86415 39828 ft 508 kts 217°
2026-04-28 10:25 1.80550 112.82079 39838 ft 508 kts 217°
2026-04-28 10:26 1.74996 112.77721 39836 ft 504 kts 217°
2026-04-28 10:26 1.69538 112.73437 39839 ft 495 kts 217°
2026-04-28 10:27 1.64134 112.69198 39847 ft 494 kts 217°
2026-04-28 10:27 1.58729 112.64960 39846 ft 494 kts 217°
2026-04-28 10:28 1.53360 112.60762 39850 ft 494 kts 217°
2026-04-28 10:29 1.45219 112.54447 39844 ft 494 kts 216°
2026-04-28 10:29 1.39795 112.50239 39842 ft 494 kts 217°
2026-04-28 10:30 1.34364 112.46024 39842 ft 494 kts 217°
2026-04-28 10:30 1.28934 112.41808 39845 ft 494 kts 217°
2026-04-28 10:31 1.23546 112.37625 39831 ft 494 kts 217°
2026-04-28 10:31 1.18128 112.33418 39832 ft 493 kts 217°
2026-04-28 10:32 1.12705 112.29209 39823 ft 494 kts 217°
2026-04-28 10:32 1.07282 112.24999 39824 ft 494 kts 217°
2026-04-28 10:33 1.01860 112.20791 39822 ft 494 kts 217°
2026-04-28 10:33 0.96470 112.16608 39817 ft 494 kts 217°
2026-04-28 10:34 0.91421 112.12689 39818 ft 494 kts 217°
2026-04-28 10:34 0.85995 112.08478 39818 ft 493 kts 217°
2026-04-28 10:35 0.80585 112.04278 39817 ft 492 kts 217°
2026-04-28 10:35 0.75176 112.00081 39818 ft 492 kts 217°
2026-04-28 10:36 0.69748 111.95869 39819 ft 497 kts 217°
2026-04-28 10:36 0.64286 111.91631 39820 ft 503 kts 217°
2026-04-28 10:37 0.58759 111.87343 39817 ft 503 kts 217°
2026-04-28 10:37 0.53234 111.83054 39818 ft 503 kts 217°
2026-04-28 10:38 0.47709 111.78768 39811 ft 503 kts 217°
2026-04-28 10:38 0.42181 111.74478 39806 ft 503 kts 217°
2026-04-28 10:39 0.36698 111.70224 39806 ft 502 kts 217°
2026-04-28 10:39 0.31178 111.65941 39811 ft 502 kts 217°
2026-04-28 10:40 0.25657 111.61657 39806 ft 502 kts 217°
2026-04-28 10:40 0.20135 111.57373 39807 ft 503 kts 217°
2026-04-28 10:41 0.14615 111.53090 39807 ft 503 kts 217°
2026-04-28 10:41 0.09127 111.48832 39807 ft 503 kts 217°
2026-04-28 10:42 0.03603 111.44547 39803 ft 503 kts 217°
2026-04-28 10:42 -0.01920 111.40261 39811 ft 503 kts 217°
2026-04-28 10:43 -0.07453 111.35968 39810 ft 504 kts 217°
2026-04-28 10:43 -0.12992 111.31671 39810 ft 504 kts 217°
2026-04-28 10:44 -0.18530 111.27374 39815 ft 504 kts 217°
2026-04-28 10:44 -0.24031 111.23106 39817 ft 504 kts 217°
2026-04-28 10:45 -0.29570 111.18809 39831 ft 504 kts 217°
2026-04-28 10:45 -0.35108 111.14512 39828 ft 504 kts 217°
2026-04-28 10:46 -0.40648 111.10216 39831 ft 504 kts 217°
2026-04-28 10:46 -0.46178 111.05905 39840 ft 504 kts 217°
2026-04-28 10:47 -0.51664 111.01620 39837 ft 504 kts 217°
2026-04-28 10:47 -0.57190 110.97308 39838 ft 504 kts 217°
2026-04-28 10:48 -0.62716 110.92998 39837 ft 504 kts 217°
2026-04-28 10:48 -0.68247 110.88686 39838 ft 504 kts 217°
2026-04-28 10:49 -0.73739 110.84404 39832 ft 505 kts 217°
2026-04-28 10:49 -0.79278 110.80085 39828 ft 505 kts 217°
2026-04-28 10:50 -0.84825 110.75760 39828 ft 506 kts 217°
2026-04-28 10:50 -0.90372 110.71434 39818 ft 506 kts 217°
2026-04-28 10:51 -0.95925 110.67103 39817 ft 508 kts 217°
2026-04-28 10:51 -1.01482 110.62771 39817 ft 511 kts 217°
2026-04-28 10:52 -1.07087 110.58399 39815 ft 511 kts 217°
2026-04-28 10:52 -1.12693 110.54026 39814 ft 511 kts 217°
2026-04-28 10:53 -1.18298 110.49654 39814 ft 511 kts 217°
2026-04-28 10:53 -1.23875 110.45304 39876 ft 511 kts 217°
2026-04-28 10:53 -1.26656 110.43135 40291 ft 503 kts 217°
2026-04-28 10:54 -1.29400 110.40994 40691 ft 497 kts 217°
2026-04-28 10:54 -1.32126 110.38890 40809 ft 494 kts 216°
2026-04-28 10:54 -1.34863 110.36807 40816 ft 496 kts 216°
2026-04-28 10:55 -1.40400 110.32623 40819 ft 502 kts 216°
2026-04-28 10:55 -1.45985 110.28396 40820 ft 505 kts 216°
2026-04-28 10:56 -1.51594 110.24137 40818 ft 506 kts 216°
2026-04-28 10:56 -1.57161 110.19906 40819 ft 506 kts 216°
2026-04-28 10:57 -1.62767 110.15644 40824 ft 506 kts 216°
2026-04-28 10:57 -1.68375 110.11382 40823 ft 506 kts 216°
2026-04-28 10:58 -1.73910 110.07031 40823 ft 507 kts 218°
2026-04-28 10:58 -1.79365 110.02566 40824 ft 507 kts 218°
2026-04-28 10:59 -1.84792 109.98134 40826 ft 507 kts 218°
2026-04-28 10:59 -1.90274 109.93691 40826 ft 506 kts 217°
2026-04-28 11:00 -1.95762 109.89259 40830 ft 506 kts 217°
2026-04-28 11:00 -2.01254 109.84824 40832 ft 507 kts 217°
2026-04-28 11:01 -2.06739 109.80394 40830 ft 507 kts 217°
2026-04-28 11:01 -2.12222 109.75963 40830 ft 506 kts 217°
2026-04-28 11:02 -2.17662 109.71567 40834 ft 506 kts 217°
2026-04-28 11:02 -2.23131 109.67146 40835 ft 505 kts 217°
2026-04-28 11:03 -2.28600 109.62726 40835 ft 504 kts 217°
2026-04-28 11:03 -2.34060 109.58312 40834 ft 504 kts 217°
2026-04-28 11:04 -2.39489 109.53923 40833 ft 504 kts 217°
2026-04-28 11:04 -2.44949 109.49508 40837 ft 504 kts 217°
2026-04-28 11:05 -2.50407 109.45096 40838 ft 504 kts 217°
2026-04-28 11:05 -2.55866 109.40681 40837 ft 504 kts 217°
2026-04-28 11:06 -2.61321 109.36269 40837 ft 504 kts 217°
2026-04-28 11:06 -2.66772 109.31860 40837 ft 504 kts 217°
2026-04-28 11:07 -2.72226 109.27447 40837 ft 504 kts 217°
2026-04-28 11:07 -2.77646 109.23063 40837 ft 504 kts 217°
2026-04-28 11:08 -2.83098 109.18651 40837 ft 504 kts 217°
2026-04-28 11:08 -2.88555 109.14235 40840 ft 504 kts 217°
2026-04-28 11:09 -2.93115 109.10615 40843 ft 503 kts 216°
2026-04-28 11:09 -2.98637 109.06329 40840 ft 502 kts 216°
2026-04-28 11:10 -3.04155 109.02032 40838 ft 502 kts 216°
2026-04-28 11:10 -3.09666 108.97732 40840 ft 502 kts 216°
2026-04-28 11:11 -3.15144 108.93456 40840 ft 502 kts 216°
2026-04-28 11:11 -3.20650 108.89157 40839 ft 502 kts 216°
2026-04-28 11:12 -3.26151 108.84860 40842 ft 502 kts 216°
2026-04-28 11:12 -3.31661 108.80555 40838 ft 502 kts 216°
2026-04-28 11:13 -3.37164 108.76256 40840 ft 502 kts 216°
2026-04-28 11:13 -3.42662 108.71960 40843 ft 501 kts 216°
2026-04-28 11:14 -3.48162 108.67662 40842 ft 501 kts 216°
2026-04-28 11:14 -3.53659 108.63365 40843 ft 501 kts 216°
2026-04-28 11:15 -3.59161 108.59064 40843 ft 501 kts 216°
2026-04-28 11:15 -3.64654 108.54769 40844 ft 501 kts 216°
2026-04-28 11:16 -3.70140 108.50479 40842 ft 500 kts 216°
2026-04-28 11:16 -3.75628 108.46187 40843 ft 500 kts 216°
2026-04-28 11:17 -3.81115 108.41895 40842 ft 500 kts 216°
2026-04-28 11:17 -3.86600 108.37603 40843 ft 501 kts 216°
2026-04-28 11:18 -3.92066 108.33326 40841 ft 501 kts 216°
2026-04-28 11:18 -3.97556 108.29029 40842 ft 501 kts 216°
2026-04-28 11:19 -4.03046 108.24732 40844 ft 501 kts 216°
2026-04-28 11:19 -4.08543 108.20428 40843 ft 501 kts 216°
2026-04-28 11:20 -4.14125 108.16327 40844 ft 499 kts 208°
2026-04-28 11:20 -4.20228 108.13029 40842 ft 498 kts 206°
2026-04-28 11:21 -4.26382 108.09806 40841 ft 499 kts 206°
2026-04-28 11:21 -4.32531 108.06578 40843 ft 499 kts 206°
2026-04-28 11:22 -4.38678 108.03346 40846 ft 499 kts 206°
2026-04-28 11:22 -4.44828 108.00111 40846 ft 499 kts 206°
2026-04-28 11:23 -4.50943 107.96894 40844 ft 499 kts 206°
2026-04-28 11:23 -4.57095 107.93656 40845 ft 499 kts 206°
2026-04-28 11:24 -4.63243 107.90420 40846 ft 499 kts 206°
2026-04-28 11:24 -4.69384 107.87187 40846 ft 499 kts 206°
2026-04-28 11:25 -4.75533 107.83949 40845 ft 499 kts 206°
2026-04-28 11:25 -4.81676 107.80713 40843 ft 498 kts 206°
2026-04-28 11:26 -4.87777 107.77466 40759 ft 490 kts 209°
2026-04-28 11:26 -4.93163 107.73357 40636 ft 487 kts 223°
2026-04-28 11:26 -4.95557 107.70940 40386 ft 488 kts 225°
2026-04-28 11:27 -4.97913 107.68480 40147 ft 490 kts 225°
2026-04-28 11:27 -5.00267 107.66007 39898 ft 491 kts 225°
2026-04-28 11:27 -5.02627 107.63527 39646 ft 492 kts 225°
2026-04-28 11:27 -5.04950 107.61084 39200 ft 488 kts 225°
2026-04-28 11:28 -5.07299 107.58615 38603 ft 489 kts 225°
2026-04-28 11:28 -5.09654 107.56140 37876 ft 491 kts 225°
2026-04-28 11:28 -5.12009 107.53663 37198 ft 491 kts 225°
2026-04-28 11:28 -5.14372 107.51178 36512 ft 492 kts 225°
2026-04-28 11:29 -5.16742 107.48686 35816 ft 493 kts 226°
2026-04-28 11:29 -5.19119 107.46186 35094 ft 495 kts 226°
2026-04-28 11:29 -5.21511 107.43669 34313 ft 499 kts 226°
2026-04-28 11:29 -5.23888 107.41169 33443 ft 504 kts 226°
2026-04-28 11:30 -5.26319 107.38611 32512 ft 507 kts 226°
2026-04-28 11:30 -5.31218 107.33455 30703 ft 513 kts 225°
2026-04-28 11:30 -5.33692 107.30851 29706 ft 517 kts 225°
2026-04-28 11:31 -5.36179 107.28233 28621 ft 519 kts 226°
2026-04-28 11:31 -5.38665 107.25616 27915 ft 513 kts 226°
2026-04-28 11:31 -5.41112 107.23040 27223 ft 508 kts 225°
2026-04-28 11:31 -5.43537 107.20485 26531 ft 503 kts 225°
2026-04-28 11:32 -5.45946 107.17948 25819 ft 499 kts 225°
2026-04-28 11:32 -5.48330 107.15435 25119 ft 495 kts 225°
2026-04-28 11:32 -5.50696 107.12942 24459 ft 491 kts 225°
2026-04-28 11:32 -5.53008 107.10506 23842 ft 486 kts 225°
2026-04-28 11:33 -5.55327 107.08062 23186 ft 481 kts 225°
2026-04-28 11:33 -5.57629 107.05637 22420 ft 477 kts 225°
2026-04-28 11:33 -5.59909 107.03234 21650 ft 473 kts 225°
2026-04-28 11:33 -5.62172 107.00850 20941 ft 469 kts 225°
2026-04-28 11:34 -5.64413 106.98487 20244 ft 465 kts 225°
2026-04-28 11:34 -5.66629 106.96151 19564 ft 460 kts 225°
2026-04-28 11:34 -5.68830 106.93830 18874 ft 457 kts 225°
2026-04-28 11:34 -5.71014 106.91527 18187 ft 454 kts 226°
2026-04-28 11:35 -5.73183 106.89239 17429 ft 450 kts 226°
2026-04-28 11:35 -5.75331 106.86973 16707 ft 445 kts 226°
2026-04-28 11:35 -5.77455 106.84732 16023 ft 440 kts 226°
2026-04-28 11:35 -5.79554 106.82516 15338 ft 435 kts 226°
2026-04-28 11:36 -5.81606 106.80351 14655 ft 418 kts 226°
2026-04-28 11:36 -5.83561 106.78286 13985 ft 398 kts 225°
2026-04-28 11:36 -5.85427 106.76292 13340 ft 391 kts 227°
2026-04-28 11:36 -5.87014 106.73996 12921 ft 410 kts 242°
2026-04-28 11:37 -5.88172 106.71359 12814 ft 413 kts 247°
2026-04-28 11:37 -5.89235 106.68682 12809 ft 412 kts 247°
2026-04-28 11:37 -5.90291 106.66006 12933 ft 412 kts 247°
2026-04-28 11:37 -5.91334 106.63375 13009 ft 395 kts 247°
2026-04-28 11:38 -5.92325 106.60879 13016 ft 374 kts 247°
2026-04-28 11:38 -5.93267 106.58514 13012 ft 355 kts 247°
2026-04-28 11:38 -5.94162 106.56300 13013 ft 337 kts 246°
2026-04-28 11:38 -5.95028 106.54176 13013 ft 320 kts 246°
2026-04-28 11:39 -5.95856 106.52146 13011 ft 310 kts 246°
2026-04-28 11:39 -5.96674 106.50143 13009 ft 309 kts 246°
2026-04-28 11:39 -5.97490 106.48142 13006 ft 309 kts 246°
2026-04-28 11:39 -5.98297 106.46161 12797 ft 303 kts 246°
2026-04-28 11:40 -5.99098 106.44199 12323 ft 304 kts 246°
2026-04-28 11:40 -5.99899 106.42235 11530 ft 306 kts 246°
2026-04-28 11:40 -6.00719 106.40224 10406 ft 318 kts 246°
2026-04-28 11:40 -6.01581 106.38112 8982 ft 335 kts 247°
2026-04-28 11:41 -6.02485 106.35892 7476 ft 348 kts 247°
2026-04-28 11:41 -6.03422 106.33628 6259 ft 350 kts 244°
2026-04-28 11:41 -6.04847 106.31773 5513 ft 332 kts 217°
2026-04-28 11:41 -6.06872 106.30828 5150 ft 317 kts 188°
2026-04-28 11:42 -6.08982 106.30978 5053 ft 296 kts 160°
2026-04-28 11:42 -6.10843 106.31688 5033 ft 277 kts 157°
2026-04-28 11:42 -6.12607 106.32319 5033 ft 260 kts 161°
2026-04-28 11:42 -6.14300 106.32816 4957 ft 248 kts 163°
2026-04-28 11:43 -6.15944 106.33224 4842 ft 238 kts 165°
2026-04-28 11:43 -6.17530 106.33571 4750 ft 228 kts 166°
2026-04-28 11:43 -6.19053 106.33882 4653 ft 218 kts 167°
2026-04-28 11:43 -6.20425 106.34414 4505 ft 206 kts 142°
2026-04-28 11:44 -6.21350 106.35450 4403 ft 202 kts 123°
2026-04-28 11:44 -6.22101 106.36645 4280 ft 202 kts 120°
2026-04-28 11:44 -6.22832 106.37856 4154 ft 203 kts 121°
2026-04-28 11:44 -6.23524 106.39088 4057 ft 202 kts 112°
2026-04-28 11:45 -6.23717 106.40467 4028 ft 201 kts 80°
2026-04-28 11:45 -6.23309 106.41806 4029 ft 201 kts 69°
2026-04-28 11:45 -6.22775 106.43111 4000 ft 202 kts 68°
2026-04-28 11:45 -6.22233 106.44414 3941 ft 202 kts 68°
2026-04-28 11:46 -6.21702 106.45711 3871 ft 199 kts 68°
2026-04-28 11:46 -6.21175 106.46984 3726 ft 196 kts 67°
2026-04-28 11:46 -6.20654 106.48247 3532 ft 195 kts 69°
2026-04-28 11:46 -6.20153 106.49515 3318 ft 195 kts 69°
2026-04-28 11:47 -6.19653 106.50779 3113 ft 194 kts 69°
2026-04-28 11:47 -6.19167 106.51997 3041 ft 184 kts 69°
2026-04-28 11:47 -6.18713 106.53133 3016 ft 168 kts 69°
2026-04-28 11:47 -6.18292 106.54188 2898 ft 159 kts 69°
2026-04-28 11:48 -6.17889 106.55203 2636 ft 155 kts 69°
2026-04-28 11:48 -6.17489 106.56214 2362 ft 154 kts 69°
2026-04-28 11:48 -6.17108 106.57178 2219 ft 143 kts 69°
2026-04-28 11:48 -6.16745 106.58094 1946 ft 140 kts 69°
2026-04-28 11:49 -6.16389 106.58992 1652 ft 139 kts 68°
2026-04-28 11:49 -6.16031 106.59893 1358 ft 139 kts 68°
2026-04-28 11:49 -6.15662 106.60826 875 ft 152 kts 68°
2026-04-28 11:49 -6.15264 106.61829 516 ft 153 kts 68°
2026-04-28 11:50 -6.14890 106.62771 388 ft 137 kts 67°
2026-04-28 11:50 -6.14547 106.63634 244 ft 130 kts 68°
2026-04-28 11:50 -6.14212 106.64481 63 ft 131 kts 67°
2026-04-28 11:50 -6.13895 106.65282 36 ft 107 kts 68°
2026-04-28 11:51 -6.13697 106.65776 34 ft 49 kts 68°
2026-04-28 11:51 -6.13585 106.66042 32 ft 33 kts 59°
2026-04-28 11:51 -6.13494 106.66192 34 ft 15 kts 41°
2026-04-28 11:51 -6.13449 106.66231 33 ft 3 kts 40°
2026-04-28 11:52 -6.13447 106.66232 33 ft 0 kts 40°
2026-04-28 11:52 -6.13422 106.66253 33 ft 20 kts 39°
2026-04-28 11:52 -6.13311 106.66299 33 ft 9 kts 15°
2026-04-28 11:53 -6.13282 106.66332 33 ft 8 kts 52°
2026-04-28 11:53 -6.13243 106.66393 33 ft 11 kts 70°
2026-04-28 11:53 -6.13209 106.66486 32 ft 17 kts 70°
2026-04-28 11:53 -6.13162 106.66604 32 ft 20 kts 64°
2026-04-28 11:54 -6.13089 106.66643 31 ft 8 kts 344°
2026-04-28 11:54 -6.13069 106.66604 32 ft 7 kts 284°
2026-04-28 11:54 -6.13078 106.66552 32 ft 9 kts 251°
2026-04-28 11:54 -6.13105 106.66473 32 ft 15 kts 251°
2026-04-28 11:55 -6.13153 106.66365 32 ft 18 kts 238°
2026-04-28 11:55 -6.13184 106.66257 33 ft 9 kts 283°
2026-04-28 11:55 -6.13145 106.66227 33 ft 9 kts 334°
2026-04-28 11:55 -6.13073 106.66192 33 ft 14 kts 335°
2026-04-28 11:56 -6.12971 106.66149 33 ft 18 kts 340°
2026-04-28 11:56 -6.12844 106.66103 33 ft 21 kts 340°
2026-04-28 11:56 -6.12752 106.66027 33 ft 4 kts 279°
2026-04-28 11:56 -6.12753 106.65981 34 ft 7 kts 267°
2026-04-28 11:57 -6.12774 106.65951 34 ft 0 kts 220°
2026-04-28 11:57 -6.12778 106.65947 34 ft 2 kts 220°
2026-04-28 11:57 -6.12773 106.65952 34 ft 0 kts 216°
2026-04-28 11:57 -6.12775 106.65950 34 ft 2 kts 217°
2026-04-28 11:58 -6.12791 106.65938 34 ft 0 kts 216°
2026-04-28 11:58 -6.12789 106.65940 34 ft 2 kts 216°
2026-04-28 11:58 -6.12777 106.65949 34 ft 2 kts 216°
2026-04-28 11:58 -6.12771 106.65953 34 ft 0 kts 216°